• In Czech Republic
  • List of Countries
  • For 7 days
  • Water Temperature
  • Satellite Maps
  • Weather Map
  • Weather Widgets
  • user-avatar
    Login

    Hourly Weather Leyland

    Today, 23 November, Thursday

    Time Temperature Precipitation Wind Pressure Humidity
    00:00 +11°C° 1.2 mm 7 mps 731 mmHg 87%
    01:00 +10°C° 0.3 mm 7 mps 732 mmHg 87%
    02:00 +9°C° 0.3 mm 7 mps 732 mmHg 86%
    03:00 +9°C° 0.3 mm 7 mps 733 mmHg 86%
    04:00 +7°C° 0.1 mm 8 mps 734 mmHg 81%
    05:00 +6°C° 0.1 mm 8 mps 735 mmHg 76%
    06:00 +5°C° 0.1 mm 9 mps 736 mmHg 71%
    07:00 +5°C° 0.1 mm 9 mps 736 mmHg 70%
    08:00 +5°C° 0.1 mm 9 mps 737 mmHg 69%
    09:00 +5°C° 0.1 mm 9 mps 737 mmHg 69%
    10:00 +5°C° 0.2 mm 10 mps 738 mmHg 69%
    11:00 +6°C° 0.2 mm 11 mps 738 mmHg 69%
    12:00 +7°C° 0.2 mm 12 mps 739 mmHg 69%
    13:00 +6°C° 0.2 mm 11 mps 740 mmHg 69%
    14:00 +6°C° 0.2 mm 10 mps 741 mmHg 69%
    15:00 +6°C° 0.2 mm 10 mps 742 mmHg 69%
    16:00 +5°C° 0.2 mm 9 mps 744 mmHg 70%
    17:00 +5°C° 0.2 mm 8 mps 745 mmHg 70%
    18:00 +4°C° 0.2 mm 7 mps 747 mmHg 71%
    19:00 +4°C° 0.1 mm 6 mps 747 mmHg 72%
    20:00 +4°C° 0.1 mm 6 mps 748 mmHg 72%
    21:00 +5°C° 0.1 mm 5 mps 749 mmHg 73%
    22:00 +4°C° 0 mm 4 mps 749 mmHg 73%
    23:00 +4°C° 0 mm 4 mps 750 mmHg 73%

    Tomorrow, 24 November, Friday

    Time Temperature Precipitation Wind Pressure Humidity
    00:00 +4°C° 0 mm 3 mps 750 mmHg 73%
    01:00 +4°C° 0 mm 3 mps 750 mmHg 72%
    02:00 +4°C° 0 mm 3 mps 750 mmHg 72%
    03:00 +4°C° 0 mm 3 mps 750 mmHg 72%
    04:00 +4°C° 0 mm 3 mps 751 mmHg 72%
    05:00 +3°C° 0 mm 3 mps 751 mmHg 72%
    06:00 +3°C° 0 mm 4 mps 752 mmHg 72%
    07:00 +3°C° 0.1 mm 4 mps 752 mmHg 72%
    08:00 +3°C° 0.1 mm 4 mps 753 mmHg 72%
    09:00 +3°C° 0.1 mm 4 mps 753 mmHg 73%
    10:00 +4°C° 0.1 mm 4 mps 754 mmHg 69%
    11:00 +3°C° 0.1 mm 5 mps 754 mmHg 66%
    12:00 +5°C° 0.1 mm 5 mps 754 mmHg 63%
    13:00 +4°C° 0.3 mm 6 mps 754 mmHg 65%
    14:00 +3°C° 0.3 mm 6 mps 755 mmHg 66%
    15:00 +3°C° 0.3 mm 6 mps 755 mmHg 68%
    16:00 +3°C° 0.2 mm 6 mps 755 mmHg 69%
    17:00 +2°C° 0.2 mm 6 mps 755 mmHg 70%
    18:00 +1°C° 0.2 mm 6 mps 755 mmHg 71%
    19:00 +1°C° 0.2 mm 6 mps 756 mmHg 71%
    20:00 +1°C° 0.2 mm 6 mps 756 mmHg 71%
    21:00 +1°C° 0.2 mm 6 mps 756 mmHg 70%
    22:00 +1°C° 0.2 mm 6 mps 756 mmHg 71%
    23:00 +1°C° 0.2 mm 6 mps 756 mmHg 72%

    Day after tomorrow, 25 November, Saturday

    Time Temperature Precipitation Wind Pressure Humidity
    00:00 +1°C° 0.2 mm 6 mps 756 mmHg 72%
    01:00 +1°C° 0.2 mm 6 mps 756 mmHg 73%
    02:00 +1°C° 0.2 mm 6 mps 756 mmHg 73%
    03:00 0°C° 0.2 mm 7 mps 756 mmHg 73%
    04:00 0°C° 0.5 mm 7 mps 756 mmHg 73%
    05:00 0°C° 0.5 mm 7 mps 756 mmHg 74%
    06:00 0°C° 0.5 mm 8 mps 756 mmHg 75%
    07:00 0°C° 0.4 mm 7 mps 756 mmHg 74%
    08:00 0°C° 0.4 mm 7 mps 757 mmHg 74%
    09:00 0°C° 0.4 mm 7 mps 757 mmHg 73%
    10:00 +1°C° 0.3 mm 8 mps 757 mmHg 71%
    11:00 +1°C° 0.3 mm 8 mps 758 mmHg 69%
    12:00 +2°C° 0.3 mm 8 mps 758 mmHg 68%
    13:00 +1°C° 0.3 mm 8 mps 758 mmHg 69%
    14:00 +1°C° 0.3 mm 8 mps 758 mmHg 70%
    15:00 +1°C° 0.3 mm 8 mps 758 mmHg 71%
    16:00 +1°C° 0.3 mm 8 mps 758 mmHg 71%
    17:00 +1°C° 0.3 mm 8 mps 759 mmHg 72%
    18:00 0°C° 0.3 mm 8 mps 759 mmHg 73%
    19:00 +1°C° 0.2 mm 8 mps 759 mmHg 74%
    20:00 +1°C° 0.2 mm 8 mps 759 mmHg 74%
    21:00 +1°C° 0.2 mm 8 mps 759 mmHg 75%
    22:00 +1°C° 0.1 mm 8 mps 760 mmHg 76%
    23:00 +1°C° 0.1 mm 8 mps 760 mmHg 77%

    26 November, Sunday

    Time Temperature Precipitation Wind Pressure Humidity
    00:00 +1°C° 0.1 mm 9 mps 760 mmHg 78%
    01:00 +1°C° 0.3 mm 8 mps 760 mmHg 79%
    02:00 +1°C° 0.3 mm 8 mps 760 mmHg 79%
    03:00 +1°C° 0.3 mm 8 mps 761 mmHg 80%
    04:00 +1°C° 0.3 mm 8 mps 761 mmHg 80%
    05:00 +1°C° 0.3 mm 8 mps 761 mmHg 79%
    06:00 +1°C° 0.3 mm 8 mps 761 mmHg 79%
    07:00 +3°C° 0.2 mm 7 mps 762 mmHg 79%
    08:00 +3°C° 0.2 mm 7 mps 762 mmHg 79%
    09:00 +3°C° 0.2 mm 7 mps 762 mmHg 78%
    10:00 +3°C° 0.2 mm 7 mps 763 mmHg 77%
    11:00 +4°C° 0.2 mm 7 mps 763 mmHg 75%
    12:00 +4°C° 0.2 mm 7 mps 763 mmHg 74%
    13:00 +4°C° 0.2 mm 7 mps 763 mmHg 74%
    14:00 +4°C° 0.2 mm 7 mps 763 mmHg 75%
    15:00 +4°C° 0.2 mm 7 mps 763 mmHg 76%
    16:00 +4°C° 0.1 mm 7 mps 763 mmHg 77%
    17:00 +3°C° 0.1 mm 6 mps 763 mmHg 77%
    18:00 +3°C° 0.1 mm 6 mps 764 mmHg 78%
    19:00 +3°C° 0.1 mm 6 mps 763 mmHg 79%
    20:00 +3°C° 0.1 mm 5 mps 763 mmHg 80%
    21:00 +3°C° 0.1 mm 5 mps 763 mmHg 82%
    22:00 +3°C° 0.2 mm 6 mps 762 mmHg 83%
    23:00 +3°C° 0.2 mm 6 mps 761 mmHg 84%

    27 November, Monday

    Time Temperature Precipitation Wind Pressure Humidity
    00:00 +4°C° 0.2 mm 7 mps 760 mmHg 86%
    01:00 +4°C° 1.3 mm 8 mps 760 mmHg 86%
    02:00 +3°C° 1.3 mm 9 mps 759 mmHg 86%
    03:00 +5°C° 1.3 mm 10 mps 758 mmHg 86%
    04:00 +5°C° 0.7 mm 9 mps 757 mmHg 84%
    05:00 +5°C° 0.7 mm 9 mps 757 mmHg 81%
    06:00 +6°C° 0.7 mm 9 mps 756 mmHg 78%
    07:00 +5°C° 0.1 mm 9 mps 757 mmHg 77%
    08:00 +5°C° 0.1 mm 9 mps 757 mmHg 75%
    09:00 +5°C° 0.1 mm 9 mps 757 mmHg 73%
    10:00 +5°C° 0.1 mm 9 mps 757 mmHg 71%
    11:00 +5°C° 0.1 mm 9 mps 757 mmHg 69%
    12:00 +5°C° 0.1 mm 10 mps 757 mmHg 66%
    13:00 +5°C° 0.1 mm 9 mps 756 mmHg 67%
    14:00 +5°C° 0.1 mm 9 mps 756 mmHg 69%
    15:00 +5°C° 0.1 mm 9 mps 756 mmHg 70%
    16:00 +4°C° 0.1 mm 8 mps 755 mmHg 72%
    17:00 +4°C° 0.1 mm 7 mps 755 mmHg 75%
    18:00 +4°C° 0.1 mm 7 mps 755 mmHg 77%
    19:00 +4°C° 0.4 mm 6 mps 755 mmHg 79%
    20:00 +5°C° 0.4 mm 5 mps 754 mmHg 82%
    21:00 +5°C° 0.4 mm 4 mps 754 mmHg 84%
    22:00 +4°C° 1.1 mm 4 mps 753 mmHg 86%
    23:00 +4°C° 1.1 mm 4 mps 752 mmHg 89%

    28 November, Tuesday

    Time Temperature Precipitation Wind Pressure Humidity
    00:00 +4°C° 1.1 mm 4 mps 751 mmHg 91%
    01:00 +4°C° 1.5 mm 4 mps 750 mmHg 89%
    02:00 +4°C° 1.5 mm 4 mps 750 mmHg 88%
    03:00 +3°C° 1.5 mm 5 mps 749 mmHg 86%
    04:00 +4°C° 0.7 mm 4 mps 749 mmHg 87%
    05:00 +4°C° 0.7 mm 4 mps 749 mmHg 87%
    06:00 +4°C° 0.7 mm 4 mps 749 mmHg 88%
    07:00 +4°C° 0 mm 4 mps 750 mmHg 87%
    08:00 +3°C° 0 mm 4 mps 750 mmHg 86%
    09:00 +3°C° 0 mm 4 mps 751 mmHg 86%
    10:00 +3°C° 0 mm 4 mps 751 mmHg 82%
    11:00 +4°C° 0 mm 4 mps 752 mmHg 78%
    12:00 +5°C° 0 mm 3 mps 752 mmHg 75%
    13:00 +4°C° 0 mm 3 mps 752 mmHg 76%
    14:00 +4°C° 0 mm 3 mps 752 mmHg 77%
    15:00 +4°C° 0 mm 3 mps 752 mmHg 78%
    16:00 +3°C° 0 mm 3 mps 753 mmHg 80%
    17:00 +3°C° 0 mm 3 mps 753 mmHg 81%
    18:00 +3°C° 0 mm 3 mps 753 mmHg 83%
    19:00 +1°C° 0.2 mm 4 mps 753 mmHg 83%
    20:00 +1°C° 0.2 mm 4 mps 753 mmHg 83%
    21:00 +1°C° 0.2 mm 4 mps 753 mmHg 83%
    22:00 +1°C° 0.1 mm 4 mps 753 mmHg 83%
    23:00 +2°C° 0.1 mm 3 mps 753 mmHg 83%
    Show more